Terminal Aerodrome Forecast
Issued by NWS

Home | Current Version | Previous Version | Text Only | Print | Product List | Glossary On
Versions: 1 2 3 4 5 6 7 8 9 10 11 12 13 14 15 16 17 18
000
FTUS42 KKEY 050533
TAFMTH
TAF
KMTH 050533Z 0506/0606 35004KT P6SM FEW020
     FM051500 32005KT P6SM SCT027=

USA.gov is the U.S. government's official web portal to all federal, state and local government web resources and services.